DW0941 Woonsocket RI US current weather conditions

sailwx.info

Wind from 033

Air temperature 6.7° C
Dewpoint 5.9° C

Last reported at 2019-Dec-14 12:06 UTC.
Time now 2019-Dec-14 12:32 UTC

Location: N 42°01' W 071°31'.
View on Google Maps.

See reports from other nearby stations

  
Tides and Currents Weather Stations Pressure Air Temp Water Temp Dewpoint Dewpoint Depression Visibility Wind Speed Wind Dir Waves Ship Positions
date/time (UTC)wind fromknots sea level pressurealtimeterstation pressurevisibilityair tempwater tempwave heightnotes
2019-Dec-14 12:06 033 6.7
2019-Dec-14 12:01 033 6.7
2019-Dec-14 10:36 185 6.7
2019-Dec-14 10:31 185 6.7
2019-Dec-14 10:06 149 6.7
2019-Dec-14 10:01 149 6.1
2019-Dec-14 09:36 149 0 gusting 2 6.7
2019-Dec-14 09:31 149 1 gusting 2 6.1
2019-Dec-14 09:01 138 0 gusting 2 5.6
2019-Dec-14 08:36 151 5.0
2019-Dec-14 08:31 151 5.0
2019-Dec-14 08:01 171 0 gusting 5 4.4
2019-Dec-14 07:36 141 3.9
2019-Dec-14 07:31 139 0 gusting 2 3.3
2019-Dec-14 07:06 139 3.3
2019-Dec-14 07:01 144 0 gusting 2 2.8
2019-Dec-14 06:36 182 2.8
2019-Dec-14 06:31 182 0 gusting 2 2.8
2019-Dec-14 06:06 170 0 gusting 2 2.8
2019-Dec-14 06:01 146 0 gusting 2 2.8
2019-Dec-14 05:36 126 2.2
2019-Dec-14 05:31 126 2.2
2019-Dec-14 05:06 126 1.7
2019-Dec-14 05:01 126 1.7
2019-Dec-14 04:36 126 1.1
2019-Dec-14 04:31 126 1.1
2019-Dec-14 04:06 126 1.1
2019-Dec-14 04:01 126 1.1
2019-Dec-14 03:36 126 1.1
2019-Dec-14 03:31 126 1.1
2019-Dec-14 03:06 126 1.1
2019-Dec-14 03:01 126 1.1
2019-Dec-14 02:36 126 1.1
2019-Dec-14 02:31 126 1.1
2019-Dec-14 02:06 126 1.1
2019-Dec-14 02:01 126 1.1
2019-Dec-14 01:36 126 1.1
2019-Dec-14 01:31 126 1.1
2019-Dec-14 01:06 126 1.1
2019-Dec-14 01:01 126 1.1
2019-Dec-14 00:36 126 1.1
2019-Dec-14 00:31 126 1.1
2019-Dec-14 00:06 126 1.1
2019-Dec-14 00:01 126 1.1
2019-Dec-13 23:36 126 1.1
2019-Dec-13 23:31 126 1.1
2019-Dec-13 23:06 126 1.1
2019-Dec-13 23:01 126 1.1
2019-Dec-13 22:36 126 1.1
2019-Dec-13 22:31 126 1.1
2019-Dec-13 22:06 126 1.1
2019-Dec-13 22:01 126 1.1
2019-Dec-13 21:36 126 1.1
2019-Dec-13 21:31 126 1.1
2019-Dec-13 21:06 126 1.1
2019-Dec-13 21:01 126 1.1
2019-Dec-13 20:36 126 1.7
2019-Dec-13 20:31 126 1.7
2019-Dec-13 20:06 126 1.7
2019-Dec-13 20:01 126 1.7
2019-Dec-13 19:36 126 1.7
2019-Dec-13 19:31 126 1.7
2019-Dec-13 19:06 126 1.7
2019-Dec-13 19:01 126 1.7
2019-Dec-13 18:36 126 1.7
2019-Dec-13 18:31 126 1.1
2019-Dec-13 18:06 126 1.1
2019-Dec-13 18:01 126 0 gusting 1 1.1
2019-Dec-13 17:36 126 0.6
2019-Dec-13 17:31 126 0.6
2019-Dec-13 17:06 126 0.6
2019-Dec-13 17:01 126 0.6
2019-Dec-13 16:36 126 -0.6
2019-Dec-13 16:31 126 -0.6
2019-Dec-13 16:06 126 -1.7
2019-Dec-13 16:01 126 -1.7
2019-Dec-13 15:36 126 -2.2
2019-Dec-13 15:31 126 -2.2
2019-Dec-13 15:06 126 -3.3
2019-Dec-13 15:01 126 -3.9
2019-Dec-13 14:36 126 -4.4
2019-Dec-13 14:31 126 -5.0
2019-Dec-13 14:06 126 -6.1
2019-Dec-13 14:01 126 -6.1
2019-Dec-13 13:36 126 -6.7
2019-Dec-13 13:31 126 -7.2
2019-Dec-13 13:06 126 -7.8
2019-Dec-13 13:01 126 -7.8
2019-Dec-13 12:36 126 -8.3
2019-Dec-13 12:31 126 -8.3
2019-Dec-13 12:06 126 -8.3
2019-Dec-13 12:01 126 -8.3
2019-Dec-13 11:36 126 -8.3
2019-Dec-13 11:31 126 -8.3
2019-Dec-13 11:06 126 -8.3
2019-Dec-13 11:01 126 -8.3
2019-Dec-13 10:36 126 -8.3
2019-Dec-13 10:31 126 -8.3
2019-Dec-13 10:06 126 -8.9
2019-Dec-13 10:01 126 -8.9
2019-Dec-13 09:36 126 -8.9
2019-Dec-13 09:31 126 -8.9
2019-Dec-13 09:06 126 -8.3
2019-Dec-13 09:01 126 -8.3
2019-Dec-13 08:36 126 -8.3
2019-Dec-13 08:31 126 -8.3
2019-Dec-13 08:06 126 -8.3
2019-Dec-13 08:01 126 -8.3
2019-Dec-13 07:36 126 -8.3
2019-Dec-13 07:31 126 -8.3
2019-Dec-13 07:06 126 -8.3
2019-Dec-13 07:01 126 -8.3
2019-Dec-13 06:36 126 -8.3
2019-Dec-13 06:31 126 -8.3
2019-Dec-13 06:06 126 -7.8
2019-Dec-13 06:01 126 -7.8
2019-Dec-13 05:36 126 -7.8
2019-Dec-13 05:31 126 -7.8
2019-Dec-13 05:06 126 -7.2
2019-Dec-13 05:01 126 -7.2
2019-Dec-13 04:36 126 -7.2
2019-Dec-13 04:31 126 -7.2
2019-Dec-13 04:06 126 -7.2
2019-Dec-13 04:01 126 -7.2
2019-Dec-13 03:36 126 -7.2
2019-Dec-13 03:31 126 -6.7
2019-Dec-13 03:06 126 -7.2
2019-Dec-13 03:01 126 -7.2
2019-Dec-13 02:36 126 -6.7
2019-Dec-13 02:31 126 -6.7
2019-Dec-13 02:06 126 -6.1
2019-Dec-13 02:01 126 -6.1
2019-Dec-13 01:36 126 -5.6
2019-Dec-13 01:31 126 -5.6
2019-Dec-13 01:06 126 -5.6
2019-Dec-13 01:01 126 -5.6
2019-Dec-13 00:36 126 -5.6
2019-Dec-13 00:31 126 -5.6
2019-Dec-13 00:06 126 -5.6
2019-Dec-13 00:01 126 -5.6
2019-Dec-12 23:36 126 -5.6
2019-Dec-12 23:31 126 -5.6
2019-Dec-12 23:06 126 -5.0
2019-Dec-12 23:01 126 -5.0
2019-Dec-12 22:36 126 -4.4
2019-Dec-12 22:31 126 -3.9
2019-Dec-12 22:06 126 -3.9
2019-Dec-12 22:01 126 -3.3
2019-Dec-12 21:36 126 -2.8
2019-Dec-12 21:31 126 -2.8
2019-Dec-12 21:06 126 -2.2
2019-Dec-12 21:01 126 -2.2
2019-Dec-12 20:36 126 -1.7
2019-Dec-12 20:31 126 -1.7
2019-Dec-12 20:06 040 -1.1
2019-Dec-12 20:01 127 1 gusting 2 -1.1
2019-Dec-12 19:36 121 1 gusting 2 -1.1
2019-Dec-12 19:31 073 0 gusting 2 -1.1
2019-Dec-12 19:06 139 -0.6
2019-Dec-12 19:01 139 -0.6
2019-Dec-12 18:36 042 0 gusting 2 -1.1
2019-Dec-12 18:31 043 0 gusting 4 -1.1
2019-Dec-12 18:06 086 0 gusting 2 -1.1
2019-Dec-12 18:01 163 1 gusting 7 -1.1
2019-Dec-12 17:36 084 2 gusting 6 -1.1
2019-Dec-12 17:31 081 1 gusting 7 -1.1
2019-Dec-12 17:06 080 0 gusting 2 -1.1
2019-Dec-12 17:01 106 0 gusting 7 -1.1
2019-Dec-12 16:36 138 1 gusting 2 -1.1
2019-Dec-12 16:31 134 1 gusting 6 -1.1
2019-Dec-12 16:06 151 1 gusting 2 -1.7
2019-Dec-12 16:01 083 1 gusting 7 -1.7
2019-Dec-12 15:36 128 1 gusting 4 -1.7
2019-Dec-12 15:31 155 3 gusting 7 -2.2
2019-Dec-12 15:06 113 3 gusting 7 -2.8
2019-Dec-12 15:01 084 3 gusting 8 -2.8
2019-Dec-12 14:36 080 0 gusting 2 -3.9
2019-Dec-12 14:31 035 0 gusting 4 -3.9
2019-Dec-12 14:06 071 0 gusting 2 -5.0
2019-Dec-12 14:01 071 1 gusting 2 -5.6
2019-Dec-12 13:36 071 -6.7
2019-Dec-12 13:31 071 -7.2
2019-Dec-12 13:06 071 -8.3
2019-Dec-12 13:01 071 -8.3
2019-Dec-12 12:36 071 -8.3
2019-Dec-12 12:31 071 -8.3
2019-Dec-12 12:06 071 -8.3
2019-Dec-12 12:01 071 -8.3